"Pseudo-MPEC" for AA07A68

Created 2023 Jun 5 16:22:03 UT using Find_Orb

Click here for an explanation of pseudo-MPECs

 
 Astrometry: 
     AA07A68* C2023 04 27qpeNW(NbL?lRjX1Astrometry]M)rwq[RwSNp#AtAJ+IPZfn`+:9069
     AA07A68  C2023 04 27ur$2yb^vYtO0MWZQY!%TKredacted;0XUDD$+OD$kjclickjdNAw069
     AA07A68  C2023 04 27HpaPMA'`w,nHLX;p\FyDWEF!6ePWbR'J(.EcHBIpE@C#[m_'G9%X069
     AA07A68  C2023 04 27_KZO6d`SAWy)herebQyfGD,DGg8,H9yMq^xQgi;'v2H-1Q/M\b9^069
     AA07A68  C2023 04 27,y(-ft9h3m;_Qnjs7,3#@)T)0kl$OR#1`j`S2sFN2RB#%3c%F[(@069
     AA07A68 1C2023 04 29d7#N\IReVVv\I20J:B6y'Ib`ICCia4G6pph[Lx1BxnleX%TrTSe9658
     AA07A68 1C2023 04 295`6X!JY7tPZUVXgy15Evm;!Gg=U@]r3L2J^3N%IH_forX$=yWN4J658
     AA07A68 1C2023 04 29[q]^w8XZdl`PpEdDcCG1(iy%G(n#,Ou2fY0%8DC^_t.*^,G[T2cZ658
     AA07A68 1C2023 04 29!9HD-LQ7!=#Z'(LLLd1Fro^%?3(\m)x`,Cn2N+3k.GsktEq^0=1Y658
     AA07A68 1C2023 04 29UjON#W0J`b0F+$X3ck%rmxexplanation=gw4%a+j@`Zoh]Lx-f:658

Station data:
(069) Baldone  (N56.773117 E24.404200)  Latvia.  Observer I. Eglitis.
   Measurer K. Cernis. 0.80-m f/3.0 Schmidt + CCD.
(658) Dominion Astrophysical Observatory  (N48.519984 W123.417000)
   Canada/BritColumbia.  Observer D. D. Balam. Measurers D. D. Balam, D. W.
   E. Green, C. E. Spratt. 1.82-m reflector + CCD.

Orbital elements:  AA07A68
   Perihelion 2023 May 16.71754 +/- 40.3 TT = 17:13:15 (JD 2460081.21754)
Epoch 2023 Apr 29.0 TT = JDT 2460063.5   Earth MOID: 0.3203   Ma: 0.0015
M 354.86896666 +/- 21               (J2000 ecliptic)             AutoNEOCP
n   0.28960198 +/- 0.187            Peri.   90.19072 +/- 57
a   2.26256829 +/- 0.973            Node   134.88069 +/- 20
e   0.4272607 +/- 0.172             Incl.    7.14392 +/- 3.6
P   3.40                   H 21.65  G  0.15   U 11.6  SR
q 1.29586161 +/- 0.161    Q 3.22927497 +/- 1.97
From 10 observations 2023 Apr. 27-29 (33.7 hr); mean residual 0".53
Residuals in arcseconds: 
230427 069  .15-  .21-    230427 069  .06-  .37+    230429 658  .43-  .52+    
230427 069  .48-  .23-    230429 658  .85+  1.0-    230429 658  .88-  .96+    
230427 069  .54+  .02+    230429 658  .64+  .60-    
230427 069  .15+  .06+    230429 658  .17-  .11+    

Ephemerides (geocentric):
Date (UTC) HH   RA             Dec           delta  r     elong  mag " sig PA
---- --------  ------------   ------------  ------ ------ -----  --- --------
2023 06 05 16  14 01 16.392   +10 52 03.62  .42314 1.3107 126.4 22.0 203'  42
2023 06 05 17  14 01 20.988   +10 50 59.70  .42326 1.3107 126.4 22.0 203'  42
2023 06 05 18  14 01 25.586   +10 49 55.75  .42339 1.3108 126.4 22.0 204'  42
2023 06 05 19  14 01 30.186   +10 48 51.77  .42352 1.3109 126.4 22.0 204'  42
2023 06 05 20  14 01 34.788   +10 47 47.76  .42365 1.3109 126.4 22.0 205'  42
2023 06 05 21  14 01 39.393   +10 46 43.72  .42378 1.3110 126.4 22.0 205'  42
2023 06 05 22  14 01 43.999   +10 45 39.65  .42390 1.3111 126.3 22.0 206'  42
2023 06 05 23  14 01 48.608   +10 44 35.55  .42403 1.3111 126.3 22.0 206'  42
2023 06 06 00  14 01 53.219   +10 43 31.42  .42416 1.3112 126.3 22.0 207'  42
2023 06 06 01  14 01 57.832   +10 42 27.26  .42429 1.3112 126.3 22.0 207'  42
2023 06 06 02  14 02 02.447   +10 41 23.07  .42442 1.3113 126.3 22.0 208'  42
2023 06 06 03  14 02 07.064   +10 40 18.85  .42455 1.3114 126.3 22.0 208'  42
2023 06 06 04  14 02 11.683   +10 39 14.60  .42468 1.3114 126.3 22.0 209'  42
2023 06 06 05  14 02 16.305   +10 38 10.32  .42481 1.3115 126.3 22.0 209'  42
2023 06 06 06  14 02 20.928   +10 37 06.01  .42494 1.3116 126.3 22.0 210'  42
2023 06 06 07  14 02 25.554   +10 36 01.67  .42507 1.3116 126.3 22.0 210'  42
2023 06 06 08  14 02 30.182   +10 34 57.30  .42520 1.3117 126.3 22.0 210'  42
2023 06 06 09  14 02 34.812   +10 33 52.91  .42533 1.3117 126.2 22.0 211'  42
2023 06 06 10  14 02 39.443   +10 32 48.48  .42546 1.3118 126.2 22.0 211'  42
2023 06 06 11  14 02 44.078   +10 31 44.03  .42559 1.3119 126.2 22.0 212'  42
2023 06 06 12  14 02 48.714   +10 30 39.54  .42572 1.3119 126.2 22.0 212'  42
2023 06 06 13  14 02 53.352   +10 29 35.03  .42585 1.3120 126.2 22.0 213'  42
2023 06 06 14  14 02 57.992   +10 28 30.49  .42598 1.3121 126.2 22.0 213'  42
2023 06 06 15  14 03 02.635   +10 27 25.92  .42611 1.3121 126.2 22.0 214'  42
2023 06 06 16  14 03 07.279   +10 26 21.32  .42625 1.3122 126.2 22.0 214'  42
2023 06 06 17  14 03 11.926   +10 25 16.69  .42638 1.3123 126.2 22.0 215'  42
2023 06 06 18  14 03 16.575   +10 24 12.03  .42651 1.3123 126.2 22.0 215'  42
2023 06 06 19  14 03 21.225   +10 23 07.35  .42664 1.3124 126.1 22.0 216'  42
2023 06 06 20  14 03 25.878   +10 22 02.64  .42677 1.3125 126.1 22.0 216'  42
2023 06 06 21  14 03 30.533   +10 20 57.89  .42690 1.3125 126.1 22.0 217'  42
2023 06 06 22  14 03 35.190   +10 19 53.13  .42704 1.3126 126.1 22.0 217'  42
2023 06 06 23  14 03 39.849   +10 18 48.33  .42717 1.3126 126.1 22.0 217'  42
2023 06 07 00  14 03 44.510   +10 17 43.50  .42730 1.3127 126.1 22.0 218'  42
2023 06 07 01  14 03 49.173   +10 16 38.65  .42743 1.3128 126.1 22.0 218'  42
2023 06 07 02  14 03 53.839   +10 15 33.77  .42757 1.3128 126.1 22.0 219'  42
2023 06 07 03  14 03 58.506   +10 14 28.86  .42770 1.3129 126.1 22.0 219'  42
2023 06 07 04  14 04 03.175   +10 13 23.92  .42783 1.3130 126.1 22.0 220'  42
2023 06 07 05  14 04 07.847   +10 12 18.96  .42797 1.3130 126.1 22.0 220'  42
2023 06 07 06  14 04 12.520   +10 11 13.97  .42810 1.3131 126.0 22.0 221'  42
2023 06 07 07  14 04 17.196   +10 10 08.95  .42823 1.3132 126.0 22.0 221'  42
2023 06 07 08  14 04 21.873   +10 09 03.90  .42837 1.3132 126.0 22.0 222'  42
2023 06 07 09  14 04 26.553   +10 07 58.83  .42850 1.3133 126.0 22.0 222'  42
2023 06 07 10  14 04 31.235   +10 06 53.73  .42863 1.3134 126.0 22.0 223'  42
2023 06 07 11  14 04 35.918   +10 05 48.60  .42877 1.3134 126.0 22.0 223'  42
2023 06 07 12  14 04 40.604   +10 04 43.45  .42890 1.3135 126.0 22.0 224'  42
2023 06 07 13  14 04 45.292   +10 03 38.27  .42904 1.3136 126.0 22.0 224'  42
2023 06 07 14  14 04 49.981   +10 02 33.06  .42917 1.3136 126.0 22.0 225'  42
2023 06 07 15  14 04 54.673   +10 01 27.82  .42931 1.3137 126.0 22.0 225'  42